S52ZO-6 Weather Reports


time (UTC)temp
C
wind
direction
speed
KPH
gust
KPH
rain 1hr
cm
rain 24hr
cm
rain mn
cm
humidity
%
barometer
mb
20260906052954 21 284 1.6 1.6 0.00 0.00 0.00 74 1015.2
20260906052453 21 272 1.6 1.6 0.00 0.00 0.00 78 1014.9
20260906051954 20 313 0.0 0.0 0.00 0.00 0.00 81 1014.9
20260906051453 20 310 0.0 0.0 0.00 0.00 0.00 81 1014.9
20260906050953 20 316 0.0 0.0 0.00 0.00 0.00 80 1014.9
20260906050453 21 322 0.0 0.0 0.00 0.00 0.00 79 1014.9
20260906045953 21 302 1.6 1.6 0.00 0.00 0.00 78 1014.9
20260906045453 20 319 0.0 0.0 0.00 0.00 0.00 78 1014.9
20260906044953 21 300 0.0 0.0 0.00 0.00 0.00 77 1014.9
20260906044453 20 310 0.0 0.0 0.00 0.00 0.00 77 1014.9
20260906043953 20 315 0.0 0.0 0.00 0.00 0.00 76 1014.9
20260906043453 20 310 0.0 0.0 0.00 0.00 0.00 77 1014.6
20260906042953 20 322 0.0 0.0 0.00 0.00 0.00 78 1014.6
20260906042453 20 323 0.0 0.0 0.00 0.00 0.00 76 1014.6
20260906041954 20 307 0.0 1.6 0.00 0.00 0.00 75 1014.6
20260906041453 21 317 1.6 1.6 0.00 0.00 0.00 75 1014.6
20260906040954 21 328 0.0 0.0 0.00 0.00 0.00 74 1014.6
20260906040453 21 303 0.0 1.6 0.00 0.00 0.00 75 1014.6
20260906035953 21 320 0.0 0.0 0.00 0.00 0.00 75 1014.6
20260906035453 21 313 0.0 0.0 0.00 0.00 0.00 74 1014.6
20260906034953 21 325 0.0 0.0 0.00 0.00 0.00 75 1014.6
20260906034454 21 322 0.0 0.0 0.00 0.00 0.00 72 1014.2
20260906033953 22 302 0.0 0.0 0.00 0.00 0.00 69 1014.2
20260906033453 22 322 0.0 0.0 0.00 0.00 0.00 71 1014.2
20260906032953 22 320 1.6 1.6 0.00 0.00 0.00 67 1014.2
20260906032453 22 304 0.0 1.6 0.00 0.00 0.00 70 1014.2
20260906031953 22 288 1.6 3.2 0.00 0.00 0.00 71 1014.2
20260906031453 22 286 0.0 1.6 0.00 0.00 0.00 69 1014.2
20260906030953 21 313 0.0 0.0 0.00 0.00 0.00 72 1014.2
20260906030453 21 308 0.0 0.0 0.00 0.00 0.00 71 1014.2
20260906025953 21 309 0.0 1.6 0.00 0.00 0.00 71 1014.2
20260906025453 21 318 0.0 0.0 0.00 0.00 0.00 73 1014.2
20260906024955 21 302 0.0 0.0 0.00 0.00 0.00 76 1014.2
20260906024453 21 282 1.6 1.6 0.00 0.00 0.00 75 1014.2
20260906023953 21 301 0.0 0.0 0.00 0.00 0.00 77 1014.2
20260906023453 21 272 0.0 0.0 0.00 0.00 0.00 76 1014.2
20260906022953 21 271 0.0 0.0 0.00 0.00 0.00 76 1014.2
20260906022456 21 293 1.6 1.6 0.00 0.00 0.00 78 1014.2
20260906021953 21 251 0.0 0.0 0.00 0.00 0.00 80 1014.2
20260906021453 21 262 1.6 3.2 0.00 0.00 0.00 78 1014.2
20260906020953 22 293 1.6 3.2 0.00 0.00 0.00 76 1014.2
20260906020453 22 272 1.6 3.2 0.00 0.00 0.00 75 1014.2
20260906015953 22 327 0.0 0.0 0.00 0.00 0.00 75 1014.2
20260906015453 22 303 1.6 1.6 0.00 0.00 0.00 73 1014.2
20260906014953 22 290 1.6 1.6 0.00 0.00 0.00 74 1014.2
20260906014453 22 300 1.6 1.6 0.00 0.00 0.00 78 1014.2
20260906013953 22 302 1.6 1.6 0.00 0.00 0.00 78 1014.2
20260906013455 21 305 0.0 1.6 0.00 0.00 0.00 81 1014.2
20260906012954 22 326 0.0 0.0 0.00 0.00 0.00 78 1014.2
20260906012453 22 291 1.6 1.6 0.00 0.00 0.00 76 1014.2
20260906011953 22 304 1.6 1.6 0.00 0.00 0.00 73 1014.2
20260906011453 22 285 0.0 3.2 0.00 0.00 0.00 77 1014.2
20260906010953 22 281 1.6 1.6 0.00 0.00 0.00 78 1014.2
20260906010453 22 289 1.6 3.2 0.00 0.00 0.00 78 1014.2
20260906005953 22 284 1.6 1.6 0.00 0.00 0.00 82 1014.2
20260906005454 21 307 1.6 1.6 0.00 0.00 0.00 81 1014.2
20260906004953 21 276 3.2 4.8 0.00 0.00 0.00 83 1014.2
20260906004454 21 295 0.0 0.0 0.00 0.00 0.00 84 1014.2
20260906003953 22 323 0.0 0.0 0.00 0.00 0.00 81 1014.2
20260906003454 22 327 1.6 1.6 0.00 0.00 0.00 78 1014.2
20260906002953 22 337 0.0 1.6 0.00 0.00 0.00 77 1014.2
20260906002453 22 310 1.6 3.2 0.00 0.00 0.00 78 1014.2
20260906001953 22 273 1.6 3.2 0.00 0.00 0.00 82 1014.2
20260906001453 22 291 3.2 3.2 0.00 0.00 0.00 84 1014.2
20260906000953 21 290 1.6 1.6 0.00 0.00 0.00 84 1014.2
20260906000455 21 270 1.6 1.6 0.00 0.00 0.00 87 1014.2
20260905235953 21 282 1.6 3.2 0.00 0.00 0.00 85 1014.2
20260905235454 22 288 1.6 1.6 0.00 0.00 0.00 84 1014.2
20260905234953 22 272 1.6 1.6 0.00 0.00 0.00 83 1014.2
20260905234453 22 277 0.0 1.6 0.00 0.00 0.00 81 1013.9
20260905233954 22 286 3.2 3.2 0.00 0.00 0.00 81 1013.9
20260905233454 22 278 1.6 4.8 0.00 0.00 0.00 83 1013.9
20260905232953 22 281 1.6 3.2 0.00 0.00 0.00 80 1013.9
20260905232453 23 259 3.2 3.2 0.00 0.00 0.00 79 1013.9
20260905231953 23 244 1.6 3.2 0.00 0.00 0.00 80 1013.9
20260905231453 23 306 1.6 1.6 0.00 0.00 0.00 80 1013.9
20260905230953 23 273 1.6 3.2 0.00 0.00 0.00 78 1013.9
20260905230453 23 265 3.2 3.2 0.00 0.00 0.00 78 1013.9
20260905225953 23 297 1.6 3.2 0.00 0.00 0.00 78 1013.9
20260905225454 23 291 1.6 1.6 0.00 0.00 0.00 80 1013.9
20260905224953 23 291 1.6 4.8 0.00 0.00 0.00 82 1013.9
20260905224453 23 291 1.6 1.6 0.00 0.00 0.00 80 1013.9
20260905223953 23 275 1.6 1.6 0.00 0.00 0.00 84 1013.9
20260905223455 23 284 1.6 3.2 0.00 0.00 0.00 85 1013.9
20260905222954 23 300 1.6 1.6 0.00 0.00 0.00 84 1013.9
20260905222453 23 277 1.6 3.2 0.00 0.00 0.00 84 1013.9
20260905221953 23 305 1.6 1.6 0.00 0.00 0.00 85 1013.9
20260905221453 23 287 1.6 3.2 0.00 0.00 0.00 86 1013.9
20260905220953 23 313 0.0 1.6 0.00 0.00 0.00 88 1013.9
20260905220454 23 295 0.0 1.6 0.00 0.00 0.00 89 1013.9
20260905215953 22 337 0.0 0.0 0.00 0.00 0.00 92 1013.9
20260905215454 22 309 0.0 0.0 0.00 0.00 0.00 90 1013.9
20260905214953 22 329 0.0 0.0 0.00 0.00 0.00 90 1013.9
20260905214454 22 318 0.0 0.0 0.00 0.00 0.00 90 1013.9
20260905213953 22 299 0.0 1.6 0.00 0.00 0.00 88 1013.9
20260905213453 22 309 0.0 1.6 0.00 0.00 0.00 89 1013.5
20260905212953 22 329 0.0 0.0 0.00 0.00 0.00 91 1013.5
20260905212454 22 321 0.0 0.0 0.00 0.00 0.00 91 1013.5
20260905211954 22 294 1.6 1.6 0.00 0.00 0.00 91 1013.5
20260905211454 22 310 0.0 0.0 0.00 0.00 0.00 89 1013.5
20260905210952 22 313 0.0 0.0 0.00 0.00 0.00 88 1013.2
20260905210453 23 311 0.0 0.0 0.00 0.00 0.00 88 1013.2
20260905205953 23 296 0.0 0.0 0.00 0.00 0.00 88 1013.2
20260905205454 23 335 0.0 0.0 0.00 0.00 0.00 88 1013.2
20260905204954 23 334 0.0 0.0 0.00 0.00 0.00 89 1013.2
20260905204453 23 325 0.0 0.0 0.00 0.00 0.00 91 1013.2
20260905203953 22 293 1.6 1.6 0.00 0.00 0.00 91 1013.2
20260905203453 22 323 0.0 0.0 0.00 0.00 0.00 90 1013.2
20260905202954 23 315 1.6 1.6 0.00 0.00 0.00 90 1013.2
20260905202453 23 304 1.6 1.6 0.00 0.00 0.00 89 1013.2
20260905201953 23 312 0.0 0.0 0.00 0.00 0.00 88 1013.2
20260905201453 23 327 0.0 0.0 0.00 0.00 0.00 88 1013.2
20260905200953 23 337 1.6 1.6 0.00 0.00 0.00 88 1013.2
20260905200454 23 344 0.0 0.0 0.00 0.00 0.00 90 1013.2
20260905195953 23 310 1.6 1.6 0.00 0.00 0.00 90 1013.2
20260905195453 23 333 0.0 0.0 0.00 0.00 0.00 89 1013.2
20260905194953 23 332 0.0 0.0 0.00 0.00 0.00 90 1013.2
20260905194453 23 332 0.0 0.0 0.00 0.00 0.00 91 1013.2
20260905193953 23 321 0.0 0.0 0.00 0.00 0.00 92 1013.2
20260905193454 23 303 1.6 1.6 0.00 0.00 0.00 93 1012.5
20260905192954 23 323 0.0 0.0 0.00 0.00 0.00 92 1012.5
20260905192454 23 308 1.6 1.6 0.00 0.00 0.00 92 1012.5
20260905191954 23 310 0.0 0.0 0.00 0.00 0.00 91 1012.5
20260905191453 23 317 0.0 0.0 0.00 0.00 0.00 91 1012.5
20260905190953 23 320 0.0 0.0 0.00 0.00 0.00 91 1012.2
20260905190453 24 336 0.0 0.0 0.00 0.00 0.00 91 1012.2
20260905185953 24 302 1.6 1.6 0.00 0.00 0.00 90 1012.2
20260905185453 24 323 0.0 0.0 0.00 0.00 0.00 91 1012.2
20260905184953 24 310 0.0 0.0 0.00 0.00 0.00 90 1012.2
20260905184453 25 336 0.0 0.0 0.00 0.00 0.00 90 1011.9
20260905183953 25 337 0.0 0.0 0.00 0.00 0.00 88 1011.9
20260905183454 25 318 0.0 0.0 0.00 0.00 0.00 89 1011.9
20260905182953 25 317 0.0 0.0 0.00 0.00 0.00 89 1011.9
20260905182453 25 311 0.0 0.0 0.00 0.00 0.00 90 1011.9
20260905181953 25 313 0.0 0.0 0.00 0.00 0.00 89 1011.9
20260905181454 25 322 0.0 0.0 0.00 0.00 0.00 88 1011.9
20260905180954 25 316 0.0 0.0 0.00 0.00 0.00 88 1011.9
20260905180454 25 320 0.0 0.0 0.00 0.00 0.00 87 1011.9
20260905175953 25 319 0.0 0.0 0.00 0.00 0.00 85 1011.5
20260905175453 25 322 0.0 0.0 0.00 0.00 0.00 85 1011.5
20260905174953 25 287 3.2 3.2 0.00 0.00 0.00 86 1011.5
20260905174453 26 315 0.0 0.0 0.00 0.00 0.00 85 1011.5
20260905173953 26 300 1.6 1.6 0.00 0.00 0.00 85 1011.5
20260905173454 26 304 1.6 1.6 0.00 0.00 0.00 85 1011.5
20260905172953 26 301 0.0 1.6 0.00 0.00 0.00 85 1011.5
20260905172453 26 314 0.0 0.0 0.00 0.00 0.00 84 1011.5
20260905171953 27 316 0.0 0.0 0.00 0.00 0.00 84 1011.5
20260905171453 27 314 0.0 0.0 0.00 0.00 0.00 83 1011.5
20260905170953 27 315 0.0 0.0 0.00 0.00 0.00 81 1011.2
20260905170454 27 315 0.0 0.0 0.00 0.00 0.00 81 1011.2
20260905165953 27 324 0.0 0.0 0.00 0.00 0.00 80 1011.2
20260905165453 27 357 0.0 3.2 0.00 0.00 0.00 79 1011.2
20260905164954 27 333 0.0 0.0 0.00 0.00 0.00 80 1011.2
20260905164453 28 335 1.6 1.6 0.00 0.00 0.00 79 1011.2
20260905163954 28 360 1.6 3.2 0.00 0.00 0.00 79 1011.2
20260905163453 28 3 1.6 1.6 0.00 0.00 0.00 78 1011.2
20260905162953 28 338 3.2 4.8 0.00 0.00 0.00 79 1011.2
20260905162454 28 342 4.8 6.4 0.00 0.00 0.00 78 1011.2
20260905161957 28 360 4.8 6.4 0.00 0.00 0.00 78 1011.2
20260905161453 28 356 0.0 0.0 0.00 0.00 0.00 76 1011.2
20260905160953 28 25 3.2 3.2 0.00 0.00 0.00 76 1011.2
20260905160453 28 345 3.2 3.2 0.00 0.00 0.00 75 1011.2
20260905155955 28 349 6.4 8.0 0.00 0.00 0.00 77 1010.8
20260905155454 28 8 4.8 6.4 0.00 0.00 0.00 74 1010.8
20260905154954 29 345 3.2 3.2 0.00 0.00 0.00 75 1010.8
20260905154453 28 360 3.2 4.8 0.00 0.00 0.00 76 1010.8
20260905153954 29 333 1.6 1.6 0.00 0.00 0.00 75 1010.8
20260905153459 29 5 4.8 4.8 0.00 0.00 0.00 76 1010.8
20260905152954 29 6 1.6 3.2 0.00 0.00 0.00 75 1010.8
20260905152453 29 4 4.8 6.4 0.00 0.00 0.00 74 1010.8
20260905151953 30 356 3.2 3.2 0.00 0.00 0.00 74 1010.8
20260905151454 30 55 3.2 4.8 0.00 0.00 0.00 73 1010.8
20260905151000 30 359 3.2 4.8 0.00 0.00 0.00 74 1010.8
20260905150453 30 352 1.6 3.2 0.00 0.00 0.00 74 1010.8
20260905145953 30 21 3.2 3.2 0.00 0.00 0.00 73 1010.8
20260905145454 30 16 3.2 3.2 0.00 0.00 0.00 74 1010.8
20260905144954 30 330 3.2 4.8 0.00 0.00 0.00 74 1010.8
20260905144453 30 8 6.4 6.4 0.00 0.00 0.00 74 1010.8
20260905143953 30 338 1.6 3.2 0.00 0.00 0.00 73 1010.8
20260905143453 30 4 3.2 9.7 0.00 0.00 0.00 75 1010.8
20260905142953 30 15 4.8 4.8 0.00 0.00 0.00 73 1010.8
20260905142453 30 358 4.8 6.4 0.00 0.00 0.00 73 1011.2
20260905141953 30 348 3.2 4.8 0.00 0.00 0.00 74 1011.2
20260905141453 30 28 6.4 8.0 0.00 0.00 0.00 74 1011.2
20260905140953 30 11 6.4 9.7 0.00 0.00 0.00 74 1011.2
20260905140455 30 24 4.8 4.8 0.00 0.00 0.00 72 1011.2
20260905135953 30 58 6.4 8.0 0.00 0.00 0.00 74 1011.2
20260905135454 30 13 6.4 8.0 0.00 0.00 0.00 73 1011.2
20260905134953 30 19 6.4 8.0 0.00 0.00 0.00 72 1011.2
20260905134453 30 344 1.6 9.7 0.00 0.00 0.00 73 1011.2
20260905133955 31 360 3.2 6.4 0.00 0.00 0.00 72 1011.2
20260905133454 30 10 4.8 9.7 0.00 0.00 0.00 74 1011.2
20260905132953 30 15 9.7 9.7 0.00 0.00 0.00 73 1011.2
20260905132453 30 44 1.6 4.8 0.00 0.00 0.00 72 1011.2
20260905131953 31 25 3.2 3.2 0.00 0.00 0.00 71 1011.2
20260905131453 30 18 6.4 6.4 0.00 0.00 0.00 72 1011.2
20260905130954 31 10 3.2 6.4 0.00 0.00 0.00 71 1011.2
20260905130453 30 26 6.4 8.0 0.00 0.00 0.00 70 1011.2
20260905125953 30 19 8.0 9.7 0.00 0.00 0.00 70 1011.2
20260905125453 31 13 6.4 9.7 0.00 0.00 0.00 70 1011.2
20260905124953 31 337 1.6 3.2 0.00 0.00 0.00 67 1011.2
20260905124453 31 35 8.0 8.0 0.00 0.00 0.00 69 1011.2
20260905123954 30 344 3.2 6.4 0.00 0.00 0.00 70 1011.2
20260905123454 31 336 1.6 3.2 0.00 0.00 0.00 71 1011.5
20260905122953 30 18 6.4 8.0 0.00 0.00 0.00 73 1011.5
20260905122453 30 97 4.8 6.4 0.00 0.00 0.00 74 1011.2
20260905121953 30 355 6.4 8.0 0.00 0.00 0.00 72 1011.2
20260905121454 31 331 1.6 1.6 0.00 0.00 0.00 72 1011.2
20260905120955 30 15 4.8 8.0 0.00 0.00 0.00 73 1011.5
20260905120454 30 356 6.4 8.0 0.00 0.00 0.00 73 1011.5
20260905115953 30 339 6.4 9.7 0.00 0.00 0.00 73 1011.5
20260905115453 30 36 8.0 9.7 0.00 0.00 0.00 73 1011.5
20260905114953 30 347 4.8 6.4 0.00 0.00 0.00 70 1011.5
20260905114453 30 343 3.2 8.0 0.00 0.00 0.00 69 1011.5
20260905113953 31 48 0.0 1.6 0.00 0.00 0.00 68 1011.5
20260905113453 31 346 0.0 1.6 0.00 0.00 0.00 66 1011.5
20260905112954 31 68 3.2 6.4 0.00 0.00 0.00 65 1011.5
20260905112454 31 16 4.8 6.4 0.00 0.00 0.00 65 1011.5
20260905111953 30 341 0.0 3.2 0.00 0.00 0.00 68 1011.2
20260905111454 29 65 9.7 9.7 0.00 0.00 0.00 67 1011.2
20260905110953 29 23 3.2 6.4 0.00 0.00 0.00 69 1011.2
20260905110453 29 8 1.6 9.7 0.00 0.00 0.00 68 1011.2
20260905105953 30 335 4.8 9.7 0.00 0.00 0.00 68 1011.2
20260905105453 30 349 1.6 3.2 0.00 0.00 0.00 67 1011.2
20260905104953 30 349 3.2 3.2 0.00 0.00 0.00 67 1011.2
20260905104453 29 5 9.7 9.7 0.00 0.00 0.00 66 1011.2
20260905103955 29 353 4.8 4.8 0.00 0.00 0.00 67 1011.2
20260905103453 30 5 3.2 3.2 0.00 0.00 0.00 67 1011.2
20260905102953 30 348 3.2 4.8 0.00 0.00 0.00 66 1011.2
20260905102457 30 354 6.4 9.7 0.00 0.00 0.00 66 1011.5
20260905101954 29 359 4.8 9.7 0.00 0.00 0.00 69 1011.5
20260905101454 28 350 1.6 6.4 0.00 0.00 0.00 71 1011.5
20260905100953 28 49 8.0 9.7 0.00 0.00 0.00 71 1011.5
20260905100453 28 15 4.8 8.0 0.00 0.00 0.00 71 1011.5
20260905095954 29 7 4.8 8.0 0.00 0.00 0.00 70 1011.5
20260905095453 29 18 6.4 6.4 0.00 0.00 0.00 66 1011.5
20260905094956 30 349 0.0 1.6 0.00 0.00 0.00 62 1011.5
20260905094455 30 349 3.2 3.2 0.00 0.00 0.00 61 1011.5
20260905093954 30 352 0.0 0.0 0.00 0.00 0.00 61 1011.5
20260905093453 29 342 1.6 1.6 0.00 0.00 0.00 61 1011.5
20260905092953 29 14 4.8 8.0 0.00 0.00 0.00 61 1011.5
20260905092453 29 356 1.6 1.6 0.00 0.00 0.00 60 1011.5
20260905091953 29 338 0.0 1.6 0.00 0.00 0.00 58 1011.5
20260905091453 29 336 1.6 1.6 0.00 0.00 0.00 58 1011.5
20260905090954 30 340 0.0 0.0 0.00 0.00 0.00 58 1011.5
20260905090453 29 302 1.6 1.6 0.00 0.00 0.00 57 1011.5
20260905085953 28 315 1.6 1.6 0.00 0.00 0.00 57 1011.5
20260905085454 28 327 3.2 3.2 0.00 0.00 0.00 58 1011.5
20260905084953 28 336 1.6 1.6 0.00 0.00 0.00 57 1011.5
20260905084453 29 342 1.6 1.6 0.00 0.00 0.00 56 1011.2
20260905083953 29 344 0.0 0.0 0.00 0.00 0.00 56 1011.2
20260905083453 28 346 3.2 4.8 0.00 0.00 0.00 56 1011.2
20260905082953 28 349 1.6 3.2 0.00 0.00 0.00 56 1011.2
20260905082453 28 350 3.2 3.2 0.00 0.00 0.00 56 1011.2
20260905081953 28 4 1.6 4.8 0.00 0.00 0.00 56 1011.2
20260905081453 28 356 4.8 6.4 0.00 0.00 0.00 56 1011.2
20260905080953 28 352 1.6 1.6 0.00 0.00 0.00 55 1011.2
20260905080453 28 346 1.6 1.6 0.00 0.00 0.00 55 1011.2
20260905075953 28 358 3.2 3.2 0.00 0.00 0.00 54 1011.2
20260905075453 28 337 1.6 3.2 0.00 0.00 0.00 54 1011.2
20260905074954 28 360 1.6 1.6 0.00 0.00 0.00 55 1011.2
20260905074453 28 352 1.6 3.2 0.00 0.00 0.00 54 1010.8
20260905073953 28 351 1.6 1.6 0.00 0.00 0.00 53 1010.8
20260905073454 28 13 1.6 3.2 0.00 0.00 0.00 52 1010.5
20260905072953 28 3 1.6 3.2 0.00 0.00 0.00 51 1010.5
20260905072455 28 6 1.6 1.6 0.00 0.00 0.00 51 1010.5
20260905071953 28 5 3.2 4.8 0.00 0.00 0.00 51 1010.5
20260905071453 27 359 0.0 0.0 0.00 0.00 0.00 50 1010.5
20260905070953 27 336 1.6 3.2 0.00 0.00 0.00 50 1010.5
20260905070453 27 10 3.2 3.2 0.00 0.00 0.00 48 1010.5
20260905065953 27 310 0.0 1.6 0.00 0.00 0.00 49 1010.5
20260905065453 27 337 0.0 0.0 0.00 0.00 0.00 47 1010.5
20260905064954 26 331 1.6 1.6 0.00 0.00 0.00 50 1010.5
20260905064453 26 328 0.0 0.0 0.00 0.00 0.00 49 1010.5
20260905063954 26 356 1.6 3.2 0.00 0.00 0.00 47 1010.5
20260905063453 26 274 3.2 3.2 0.00 0.00 0.00 47 1010.5
20260905062953 25 297 0.0 0.0 0.00 0.00 0.00 48 1010.5
20260905062453 25 325 1.6 1.6 0.00 0.00 0.00 50 1010.5
20260905061953 25 308 1.6 1.6 0.00 0.00 0.00 49 1010.5
20260905061455 24 307 0.0 1.6 0.00 0.00 0.00 49 1010.5
20260905060953 23 212 0.0 0.0 0.00 0.00 0.00 50 1010.5
20260905060453 23 102 1.6 1.6 0.00 0.00 0.00 52 1010.5
20260905055953 22 276 3.2 3.2 0.00 0.00 0.00 57 1010.8
20260905055453 22 326 0.0 0.0 0.00 0.00 0.00 61 1010.8
20260905054955 22 315 0.0 0.0 0.00 0.00 0.00 61 1010.8
20260905054453 21 323 0.0 0.0 0.00 0.00 0.00 63 1010.8
20260905053953 21 326 0.0 0.0 0.00 0.00 0.00 64 1010.8
20260905053453 21 308 0.0 0.0 0.00 0.00 0.00 63 1010.8